Regional Weather Roundup
Issued by NWS

Home | Current Version | Previous Version | Graphics & Text | Print | Product List | Glossary On
Versions: 1 2 3 4 5 6 7 8 9 10 11 12 13 14 15 16 17 18 19 20 21 22 23 24 25 26 27 28 29 30 31 32 33 34 35 36 37 38 39 40 41 42 43 44 45 46 47 48 49 50
000
ASUS43 KLOT 280803
RWRIL

ILLINOIS REGIONAL WEATHER ROUNDUP
NATIONAL WEATHER SERVICE CHICAGO/ROMEOVILLE IL
300 AM CDT THU JUL 28 2016

NOTE: "FAIR" INDICATES FEW OR NO CLOUDS BELOW 12,000 FEET WITH NO
SIGNIFICANT WEATHER AND/OR OBSTRUCTIONS TO VISIBILITY.

* THESE STATIONS ARE NOT UNDER NWS QUALITY CONTROL. THEY ALSO MAY NOT
  REPORT WEATHER SUCH AS PRECIPITATION OR FOG.

ILZ001-002-007-009-015-016-024-280900-
NORTHWEST ILLINOIS

CITY           SKY/WX    TMP DP  RH WIND       PRES   REMARKS
MOLINE         PTCLDY    72  68  87 CALM      29.89F
STERLING*      CLEAR     69  69 100 CALM      29.90F FOG
SAVANNA*       CLEAR     69  68  96 NE3       29.89F FOG
$$

ILZ003-004-008-010-011-017-018-280900-
NORTH CENTRAL ILLINOIS

CITY           SKY/WX    TMP DP  RH WIND       PRES   REMARKS
ROCKFORD       PTCLDY    71  66  84 CALM      29.91F
FREEPORT*      CLEAR     65  65  98 CALM      29.93F FOG
ROCHELLE*      CLEAR     67  66  97 S3        29.91F
DE KALB*       CLEAR     70  68  94 CALM      29.92F
$$

ILZ005-006-012>014-019>023-280900-
NORTHEAST ILLINOIS

CITY           SKY/WX    TMP DP  RH WIND       PRES   REMARKS
CHICAGO-OHARE  PTCLDY    74  64  71 SW3       29.90F
CHICAGO-MIDWAY PTCLDY    76  66  71 SW5       29.90F
AURORA         CLEAR     69  66  90 CALM      29.91F FOG
LANSING*       CLEAR     69  65  89 CALM      29.91F
WAUKEGAN       CLOUDY    71  66  84 NE5       29.90F
DUPAGE AIRPORT CLEAR     70  65  84 CALM      29.90F
KANKAKEE*      PTCLDY    68  66  94 CALM      29.91F
WHEELING       CLEAR     72  68  87 CALM      29.91F
MORRIS*        PTCLDY    69  68  96 CALM      29.90F FOG
NORTHERLY ISL    N/A     77  66  68 SW2         N/A
$$

LMZ740>746-280900-
SOUTHERN LAKE MICHIGAN

STATION/POSITION SKY/WX   TEMP    WIND        PRES    VSBY  WAVE
                          AIR SEA DIR/SP/G                  HT/PER
                          (F)     (DEG/KT/KT) (MB)    (MI)  (FT/S)
SOUTHERN BUOY              75 75   20/  4/  6 1012.7          0
WILMETTE HARBOR            73 73  250/  4/  4   N/A           1/ 3
HARRISON CRIB              76     190/ 10/ 10   N/A
BURNHAM HARBOR             77     240/  2/  4   N/A
CALUMET HARBOR             75     200/  2/  2 1012.5F
BURNS HARBOR               74     180/  2/  3 1013.5F
MICHIGAN CITY              74     110/  5/  6   N/A
MICHIGAN CITY 6N           76 77  160/  6/  6   N/A           0
ST. JOSEPH                 77 79  170/  6/  8 1012.6F         0
$$

ILZ025>027-034>036-040-047-049-050-058-095>099-280900-
WEST-CENTRAL ILLINOIS

CITY           SKY/WX    TMP DP  RH WIND       PRES   REMARKS
QUINCY         MOCLDY    69  68  96 SW12      29.90R
GALESBURG*     CLOUDY    71  70  97 W6        29.90F
MACOMB*        MOCLDY    72  70  95 W3        29.93S
JACKSONVILLE*  PTCLDY    69  68  96 CALM      29.89F
PITTSFIELD*    PTCLDY    74  70  89 SW5       29.91F
$$

ILZ028>032-037-038-041>044-048-051>054-059>061-280900-
CENTRAL ILLINOIS

CITY           SKY/WX    TMP DP  RH WIND       PRES   REMARKS
BLOOMINGTON    PTCLDY    72  69  90 S5        29.92F
DECATUR        CLOUDY    71  69  93 NE5       29.90F
PEORIA         MOCLDY    75  72  90 CALM      29.89F
LACON*         CLOUDY    72  69  92 CALM      29.89F
LINCOLN*       PTCLDY    73  73  97 CALM      29.89F
SPRINGFIELD    MOCLDY    75  73  93 CALM      29.89F FOG
TAYLORVILLE    MOCLDY    73  73  99 MISG      29.89F FOG
$$

ILZ033-039-045-046-055>057-062-063-280900-
EAST-CENTRAL ILLINOIS

CITY           SKY/WX    TMP DP  RH WIND       PRES   REMARKS
CHAMPAIGN      CLOUDY    72  68  87 SE3       29.90F
MATTOON        MOCLDY    74  71  91 CALM      29.89F
PARIS*         MOCLDY    70  70 100 CALM      29.91S
$$

ILZ079-100>102-280900-
SOUTHWEST ILLINOIS

CITY           SKY/WX    TMP DP  RH WIND       PRES   REMARKS
ALTON          PTCLDY    71  70  95 W3        29.88F
BELLEVILLE     MOCLDY    74  74 100 CALM      29.87S
CAHOKIA*       MOCLDY    73  69  87 CALM      29.87F
SPARTA*        CLOUDY    74  71  91 CALM      29.90F
$$

ILZ064>066-069>071-074>076-080>082-084>086-088>090-092>094-280900-
SOUTH-CENTRAL ILLINOIS

CITY           SKY/WX    TMP DP  RH WIND       PRES   REMARKS
CARBONDALE     CLOUDY    74  71  91 CALM      29.89F
CAIRO*         CLOUDY    73  73  99 CALM      29.90F
EFFINGHAM*     PTCLDY    74  74 100 CALM      29.91F FOG
MARION         CLOUDY    73  73 100 CALM      29.91F
MT. VERNON     CLOUDY    73  70  88 MISG      29.89F
SALEM*         PTCLDY    74  72  93 CALM      29.89F
METROPOLIS*    LGT RAIN  73  73  98 CALM      29.91F
$$

ILZ067-068-072-073-078-083-087-091-280900-
SOUTHEAST ILLINOIS

CITY           SKY/WX    TMP DP  RH WIND       PRES   REMARKS
LAWRENCEVILLE  CLOUDY    75  75 100 E3        29.90F FOG
FLORA*         CLOUDY    74  73  96 CALM      29.89F FOG
FAIRFIELD*     CLOUDY    74  73  97 CALM      29.89F
HARRISBURG*    CLOUDY    73  73  98 CALM      29.91F
ROBINSON*      MOCLDY    73  73  98 SE3       29.90F
CARMI*         CLOUDY    73  73 100 CALM      29.90F
$$

ABBREVIATIONS USED IN REMARKS
   TC - TEMPERATURE IN CELSIUS
  WCI - WIND CHILL INDEX
   HX - HEAT INDEX
  VSB - VISIBILITY
$$




USA.gov is the U.S. government's official web portal to all federal, state and local government web resources and services.